Left ArrowRight Arrow

38.83388, -104.82136

Hourly Observations for September 23, 2018

Temp ( °F °C ) Dew Point ( °F °C ) Humidity (%) Winds ( mph kmh ) Pressure ( in mb ) Visibility ( mi km ) Precip ( " mm )
12:54 am 00:54 Clear 54 12.2 35 1.7 49 49 N 8 13 29.91 1013 10 16 0.00 0.00
1:54 am 01:54 Clear 52 11.1 36 2.2 55 55 NNE 13 20 29.91 1013 10 16 0.00 0.00
2:54 am 02:54 Clear 55 12.8 35 1.7 47 47 ENE 5 7 29.89 1012 10 16 0.00 0.00
3:54 am 03:54 Clear 56 13.3 30 -1.1 37 37 WNW 3 6 29.89 1012 10 16 0.00 0.00
4:54 am 04:54 Mostly Clear 60 15.6 25 -3.9 26 26 NNW 10 17 29.87 1012 10 16 0.00 0.00
5:54 am 05:54 Mostly Clear 63 17.2 24 -4.4 23 23 NNW 9 15 29.88 1012 9 14 0.00 0.00
6:54 am 06:54 Mostly Sunny 57 13.9 24 -4.4 28 28 N 10 17 29.92 1013 10 16 0.00 0.00
7:54 am 07:54 Mostly Sunny 63 17.2 27 -2.8 26 26 N 7 11 29.93 1013 10 16 0.00 0.00
8:54 am 08:54 Partly Cloudy 75 23.9 27 -2.8 17 17 Calm 29.89 1012 10 16 0.00 0.00
9:54 am 09:54 Partly Cloudy 79 26.1 28 -2.2 15 15 W 7 11 29.87 1012 10 16 0.00 0.00
10:54 am 10:54 Partly Cloudy 80 26.7 25 -3.9 13 13 VRB 5 7 29.88 1012 10 16 0.00 0.00
11:54 am 11:54 Mostly Sunny 82 27.8 26 -3.3 13 13 SSE 10 17 29.86 1011 10 16 0.00 0.00
12:54 pm 12:54 Mostly Sunny 83 28.3 26 -3.3 12 12 SSW 9 15 29.84 1010 10 16 0.00 0.00
1:54 pm 13:54 Mostly Sunny 83 28.3 22 -5.6 10 10 E 5 7 29.81 1009 10 16 0.00 0.00
2:35 pm 14:35 Mostly Sunny 86 30 20 -6.7 9 9 S 18 30 29.44 997 10 16 0.00 0.00
2:54 pm 14:54 Mostly Sunny 87 30.6 19 -7.2 8 8 S 16 26 29.75 1007 10 16 0.00 0.00
3:54 pm 15:54 Mostly Sunny 86 30 23 -5 10 10 S 24 39 29.72 1007 10 16 0.00 0.00
4:54 pm 16:54 Mostly Sunny 83 28.3 24 -4.4 11 11 S 21 33 29.70 1006 10 16 0.00 0.00
5:54 pm 17:54 Mostly Sunny 83 28.3 25 -3.9 12 12 SSW 20 31 29.69 1006 10 16 0.00 0.00
6:54 pm 18:54 Mostly Sunny 77 25 27 -2.8 16 16 S 14 22 29.73 1007 10 16 0.00 0.00
7:54 pm 19:54 Mostly Clear 70 21.1 28 -2.2 21 21 S 8 13 29.74 1007 10 16 0.00 0.00
8:54 pm 20:54 Partly Cloudy 71 21.7 27 -2.8 19 19 SW 7 11 29.73 1007 10 16 0.00 0.00
9:54 pm 21:54 Mostly Clear 69 20.6 26 -3.3 20 20 WSW 3 6 29.72 1006 10 16 0.00 0.00
10:54 pm 22:54 Mostly Clear 65 18.3 27 -2.8 24 24 E 8 13 29.71 1006 10 16 0.00 0.00
11:54 pm 23:54 Mostly Clear 61 16.1 27 -2.8 27 27 VRB 3 6 29.71 1006 10 16 0.00 0.00

Powered by Vaisala Xweather